Change the Weather History Date:

Sunday, January 19, 2014

  Actual Average Record
Temperature  
Mean Temperature 50 °F -  
Max Temperature 55 °F - - ()
Min Temperature 44 °F - - ()
Degree Days  
Heating Degree Days 16    
Moisture  
Dew Point 46 °F    
Average Humidity 87    
Maximum Humidity 94    
Minimum Humidity 67    
Precipitation  
Precipitation 0.00 in - - ()
Sea Level Pressure  
Sea Level Pressure 29.91 in    
Wind  
Wind Speed 5 mph ()    
Max Wind Speed 7 mph    
Max Gust Speed -    
Visibility 6.2 miles    
Events Rain    
T = Trace of Precipitation, MM = Missing Value Source: Averaged Metar Reports

Daily Weather History Graph

Daily Weather History Graph

Search for Another Location

Airport or City:

Trip Planner

Search our weather history database for the weather conditions in past years. The results will help you decide how hot, cold, wet, or windy it might be!

Date:

Astronomy

Jan. 19, 2014 Rise Set
Actual Time 8:07 AM EET 5:07 PM EET
Civil Twilight 7:32 AM EET 5:41 PM EET
Nautical Twilight 6:54 AM EET 6:19 PM EET
Astronomical Twilight 6:17 AM EET 6:56 PM EET
Moon 8:45 PM EET (1/19) 9:11 AM EET (1/19)
Length of Visible Light 10h 08m
Length of Day
8h 59m
Waning Gibbous, 91% of the Moon is Illuminated
Jan 19
Waning Gibbous
Jan 24
Last Quarter
Jan 30
New
Feb 6
First Quarter
Feb 15
Full

Hourly Weather History & Observations

Time (EET) Temp. Windchill Dew Point Humidity Pressure Visibility Wind Dir Wind Speed Gust Speed Precip Events Conditions
12:00 AM 44.6 °F 42.2 °F 42.8 °F 93% 29.98 in - East 4.6 mph - N/A Rain Rain
1:00 AM 46.4 °F 44.3 °F 44.6 °F 93% 29.95 in 6.2 mi ENE 4.6 mph - N/A   Scattered Clouds
2:00 AM 46.4 °F 44.3 °F 44.6 °F 93% 29.95 in 6.2 mi ENE 4.6 mph - N/A Rain Light Rain Showers
3:00 AM 46.4 °F 42.9 °F 44.6 °F 93% 29.95 in 6.2 mi ENE 6.9 mph - N/A Rain Light Rain Showers
4:00 AM 46.4 °F 44.3 °F 44.6 °F 93% 29.95 in 6.2 mi ENE 4.6 mph - N/A Rain Light Rain
4:30 AM 46.4 °F 44.3 °F 44.6 °F 93% 29.95 in 6.2 mi ENE 4.6 mph - N/A Rain Light Rain
5:00 AM 46.4 °F 42.9 °F 44.6 °F 93% 29.95 in 6.2 mi NE 6.9 mph - N/A Rain Light Rain
5:30 AM 48.2 °F - 44.6 °F 87% 29.95 in 6.2 mi NE 4.6 mph - N/A   Scattered Clouds
6:00 AM 48.2 °F - 44.6 °F 87% 29.95 in 6.2 mi East 4.6 mph - N/A   Scattered Clouds
6:30 AM 46.4 °F 42.9 °F 44.6 °F 93% 29.92 in 6.2 mi ENE 6.9 mph - N/A   Scattered Clouds
7:00 AM 46.4 °F 44.3 °F 44.6 °F 93% 29.95 in - ESE 4.6 mph - N/A   Clear
7:30 AM 46.4 °F 42.9 °F 44.6 °F 93% 29.92 in 6.2 mi East 6.9 mph - N/A   Scattered Clouds
8:00 AM 46.4 °F 42.9 °F 44.6 °F 93% 29.92 in 6.2 mi ENE 6.9 mph - N/A   Scattered Clouds
8:30 AM 48.2 °F - 44.6 °F 87% 29.92 in 6.2 mi ENE 4.6 mph - N/A   Partly Cloudy
9:00 AM 48.2 °F - 44.6 °F 87% 29.95 in 6.2 mi East 6.9 mph - N/A   Partly Cloudy
9:30 AM 48.2 °F - 44.6 °F 87% 29.95 in 6.2 mi ENE 6.9 mph - N/A   Partly Cloudy
10:00 AM 48.2 °F - 44.6 °F 87% 29.95 in 6.2 mi ENE 6.9 mph - N/A   Partly Cloudy
10:30 AM 50.0 °F - 46.4 °F 87% 29.95 in 6.2 mi ENE 4.6 mph - N/A   Partly Cloudy
11:00 AM 50.0 °F - 46.4 °F 87% 29.95 in 6.2 mi East 4.6 mph - N/A   Partly Cloudy
11:30 AM 51.8 °F - 48.2 °F 88% 29.95 in - East 4.6 mph - N/A   Clear
12:00 PM 53.6 °F - 46.4 °F 77% 29.92 in - East 6.9 mph - N/A   Clear
12:30 PM 53.6 °F - 46.4 °F 77% 29.92 in - East 6.9 mph - N/A   Clear
1:00 PM 53.6 °F - 46.4 °F 77% 29.89 in - East 6.9 mph - N/A   Clear
1:30 PM 53.6 °F - 46.4 °F 77% 29.89 in - East 4.6 mph - N/A   Clear
2:00 PM 53.6 °F - 46.4 °F 77% 29.89 in - East 4.6 mph - N/A   Clear
2:30 PM 55.4 °F - 44.6 °F 67% 29.89 in - East 4.6 mph - N/A   Clear
3:00 PM 53.6 °F - 48.2 °F 82% 29.89 in 6.2 mi East 4.6 mph - N/A   Partly Cloudy
3:30 PM 51.8 °F - 48.2 °F 88% 29.89 in 6.2 mi SE 2.3 mph - N/A Rain Light Rain
4:00 PM 51.8 °F - 48.2 °F 88% 29.89 in 6.2 mi ENE 4.6 mph - N/A Rain Light Rain
4:30 PM 50.0 °F - 48.2 °F 94% 29.92 in 6.2 mi NE 4.6 mph - N/A Rain Light Rain
5:00 PM 50.0 °F - 48.2 °F 94% 29.92 in 6.2 mi ENE 4.6 mph - N/A   Scattered Clouds
5:30 PM 50.0 °F - 48.2 °F 94% 29.89 in 6.2 mi ENE 6.9 mph - N/A   Scattered Clouds
6:00 PM 50.0 °F - 46.4 °F 87% 29.89 in 6.2 mi ENE 6.9 mph - N/A   Scattered Clouds
6:30 PM 50.0 °F - 46.4 °F 87% 29.89 in 6.2 mi East 6.9 mph - N/A   Scattered Clouds
7:00 PM 50.0 °F - 46.4 °F 87% 29.86 in 6.2 mi East 6.9 mph - N/A   Partly Cloudy
7:30 PM 50.0 °F - 46.4 °F 87% 29.86 in 6.2 mi ENE 6.9 mph - N/A   Partly Cloudy
8:00 PM 50.0 °F - 46.4 °F 87% 29.86 in 6.2 mi ENE 6.9 mph - N/A   Partly Cloudy
8:30 PM 50.0 °F - 44.6 °F 82% 29.86 in 6.2 mi East 6.9 mph - N/A   Partly Cloudy
9:00 PM 50.0 °F - 44.6 °F 82% 29.86 in 6.2 mi ENE 6.9 mph - N/A   Partly Cloudy
9:30 PM 50.0 °F - 44.6 °F 82% 29.83 in 6.2 mi ENE 4.6 mph - N/A   Partly Cloudy
10:00 PM 50.0 °F - 44.6 °F 82% 29.86 in 6.2 mi East 6.9 mph - N/A   Partly Cloudy
11:00 PM 51.8 °F - 44.6 °F 76% 29.83 in 6.2 mi NE 6.9 mph - N/A   Scattered Clouds